TimeCDT,TemperatureF,Dew PointF,Humidity,Sea Level PressureIn,VisibilityMPH,Wind Direction,Wind SpeedMPH,Gust SpeedMPH,PrecipitationIn,Events,Conditions,WindDirDegrees,DateUTC
12:54 AM,34.0,32.0,92,30.22,8.0,West,8.1,-,N/A,,Clear,270,2013-03-20 05:54:00
1:54 AM,33.1,32.0,96,30.21,6.0,West,9.2,-,N/A,,Clear,260,2013-03-20 06:54:00
2:54 AM,33.1,30.9,92,30.22,5.0,West,10.4,-,N/A,,Partly Cloudy,280,2013-03-20 07:54:00
3:30 AM,34.0,32.0,92,30.20,5.0,WNW,10.4,-,N/A,,Mostly Cloudy,300,2013-03-20 08:30:00
3:54 AM,34.0,32.0,92,30.22,5.0,NW,10.4,-,N/A,,Mostly Cloudy,310,2013-03-20 08:54:00
4:04 AM,34.0,30.9,89,30.20,5.0,NW,9.2,-,N/A,,Partly Cloudy,310,2013-03-20 09:04:00
4:54 AM,32.0,27.0,82,30.23,10.0,NNW,13.8,-,N/A,,Clear,330,2013-03-20 09:54:00
5:54 AM,30.9,19.0,61,30.24,10.0,NW,20.7,26.5,N/A,,Mostly Cloudy,320,2013-03-20 10:54:00
6:54 AM,28.9,19.9,69,30.27,10.0,NNW,19.6,24.2,N/A,,Overcast,330,2013-03-20 11:54:00
8:54 AM,28.9,15.1,56,30.32,10.0,NW,21.9,27.6,N/A,,Partly Cloudy,320,2013-03-20 13:54:00
9:54 AM,28.9,12.9,51,30.33,10.0,NW,17.3,28.8,N/A,,Clear,310,2013-03-20 14:54:00
10:54 AM,28.9,12.9,51,30.33,10.0,NW,19.6,-,N/A,,Scattered Clouds,320,2013-03-20 15:54:00
11:54 AM,30.0,12.9,49,30.32,10.0,NW,16.1,25.3,N/A,,Mostly Cloudy,320,2013-03-20 16:54:00
12:54 PM,30.0,14.0,51,30.30,10.0,NW,18.4,26.5,N/A,,Mostly Cloudy,320,2013-03-20 17:54:00
1:54 PM,34.0,12.9,42,30.29,10.0,NW,21.9,25.3,N/A,,Scattered Clouds,310,2013-03-20 18:54:00
2:54 PM,34.0,10.9,38,30.26,10.0,NW,26.5,32.2,N/A,,Clear,320,2013-03-20 19:54:00
3:54 PM,35.1,10.9,37,30.22,10.0,WNW,17.3,-,N/A,,Clear,300,2013-03-20 20:54:00
4:54 PM,35.1,9.0,34,30.21,10.0,WNW,12.7,-,N/A,,Partly Cloudy,300,2013-03-20 21:54:00
5:54 PM,34.0,8.1,34,30.20,10.0,WNW,12.7,-,N/A,,Clear,300,2013-03-20 22:54:00
6:54 PM,32.0,8.1,37,30.19,10.0,NW,13.8,-,N/A,,Clear,310,2013-03-20 23:54:00
7:54 PM,30.0,9.0,41,30.18,10.0,NW,9.2,-,N/A,,Clear,320,2013-03-21 00:54:00
8:54 PM,28.0,8.1,43,30.17,10.0,NW,5.8,-,N/A,,Clear,310,2013-03-21 01:54:00
9:54 PM,26.1,9.0,49,30.16,10.0,NNW,4.6,-,N/A,,Clear,330,2013-03-21 02:54:00
10:54 PM,26.1,9.0,49,30.16,10.0,NW,4.6,-,N/A,,Clear,310,2013-03-21 03:54:00
11:54 PM,25.0,9.0,51,30.16,10.0,NW,5.8,-,N/A,,Clear,310,2013-03-21 04:54:00